GW1458 Weather Reports


Display with metric or nautical units.
time (UTC)temp
F
wind
direction
speed
MPH
gust
MPH
rain 1hr
in
rain 24hr
in
rain mn
in
humidity
%
barometer
mb
20260504081530 53 68 4.0 9.0 0.00 0.00 0.00 41 1008.7
20260504044529 51 317 1.0 6.0 0.00 0.00 0.00 53 1009.5
20260504043035 50 268 0.0 3.0 0.00 0.00 0.00 54 1009.6
20260504041531 50 0 0.0 4.0 0.00 0.00 0.00 54 1009.7
20260504040046 49 281 1.0 3.0 0.00 0.00 0.00 54 1009.8
20260504034530 49 292 0.0 1.0 0.00 0.00 0.00 53 1009.9
20260504033034 50 0 1.0 2.0 0.00 0.00 0.00 53 1009.8
20260504031530 51 323 2.0 4.0 0.00 0.00 0.00 50 1009.8
20260504030029 53 279 1.0 3.0 0.00 0.00 0.00 49 1009.9
20260504024528 54 284 1.0 4.0 0.00 0.00 0.00 45 1009.9
20260504023028 57 274 3.0 4.0 0.00 0.00 0.00 41 1009.7
20260504021532 60 276 1.0 3.0 0.00 0.00 0.00 35 1009.8
20260504020031 61 0 0.0 3.0 0.00 0.00 0.00 35 1009.7
20260504014532 61 318 6.0 9.0 0.00 0.00 0.00 34 1009.8
20260504013031 62 344 7.0 10.0 0.00 0.00 0.00 33 1009.8
20260504011528 63 336 8.0 11.0 0.00 0.00 0.00 33 1010.1
20260504010030 64 8 8.0 13.0 0.00 0.00 0.00 33 1010.1
20260504004539 64 343 10.0 14.0 0.00 0.00 0.00 35 1010.2
20260504003029 65 248 6.0 17.0 0.00 0.00 0.00 37 1010.4
20260504001529 64 359 13.0 19.0 0.00 0.00 0.00 38 1010.4
20260504000029 65 346 12.0 20.0 0.00 0.00 0.00 38 1010.6
20260503234533 65 349 11.0 17.0 0.00 0.00 0.00 38 1010.8
20260503233028 65 317 12.0 19.0 0.00 0.00 0.00 39 1010.8
20260503231528 64 347 15.0 25.0 0.00 0.00 0.00 37 1010.9
20260503230030 65 300 13.0 24.0 0.00 0.00 0.00 38 1011.1
20260503224531 65 354 13.0 22.0 0.00 0.00 0.00 36 1010.9
20260503223030 64 333 19.0 26.0 0.00 0.00 0.00 35 1010.8
20260503221529 63 7 18.0 26.0 0.00 0.00 0.00 38 1011.1
20260503220028 63 10 21.0 27.0 0.00 0.00 0.00 38 1011.3
20260503214532 64 354 12.0 20.0 0.00 0.00 0.00 35 1011.7
20260503213029 64 357 12.0 20.0 0.00 0.00 0.00 34 1011.9
20260503211531 64 333 14.0 22.0 0.00 0.00 0.00 35 1012.3
20260503210029 63 209 10.0 18.0 0.00 0.00 0.00 37 1012.9
20260503204530 63 259 10.0 20.0 0.00 0.00 0.00 43 1013.5
20260503203030 61 280 7.0 16.0 0.00 0.00 0.00 45 1013.4
20260503201531 58 278 6.0 23.0 0.00 0.00 0.00 55 1013.4
20260503200032 63 269 9.0 19.0 0.00 0.00 0.00 40 1013.7
20260503194532 62 23 9.0 23.0 0.00 0.00 0.00 42 1013.7
20260503193039 62 262 6.0 12.0 0.00 0.00 0.00 41 1013.9
20260503191531 62 218 4.0 10.0 0.00 0.00 0.00 42 1014.1
20260503190032 61 358 2.0 5.0 0.00 0.00 0.00 43 1014.1
20260503184530 59 113 4.0 10.0 0.00 0.00 0.00 45 1014.4
20260503183029 58 58 2.0 7.0 0.00 0.00 0.00 52 1014.6
20260503181532 59 279 2.0 12.0 0.00 0.00 0.00 45 1015.4
20260503180030 60 207 2.0 9.0 0.00 0.00 0.00 42 1014.9
20260503174532 59 49 3.0 8.0 0.00 0.00 0.00 42 1015.0
20260503173028 58 205 2.0 11.0 0.00 0.00 0.00 43 1015.2
20260503171529 57 63 4.0 11.0 0.00 0.00 0.00 47 1015.3